When you browse on this site, cookies collect data to enhance your experience and personalize the content and advertising you see.
Visit our Privacy Policy to learn more. By continuing to use the site, you agree to this use of cookies and data.
  • în România
  • Lista ţărilor
  • Pe 7 zile
  • Temperatura apei
  • Meteo pe hartă
  • Widget-uri
  • user-avatar
    Intrare

    Meteo pe oră la Akureyri

    Astăzi, 23 Februarie, Duminică

    Timp Temperatura Precipitaţii Vânt Presiune Umiditate
    00:00 -7°C° 0 mm 2 m/s 686 mmHg 88%
    01:00 -7°C° 0 mm 2 m/s 686 mmHg 88%
    02:00 -7°C° 0 mm 2 m/s 686 mmHg 88%
    03:00 -7°C° 0 mm 2 m/s 686 mmHg 89%
    04:00 -7°C° 0 mm 2 m/s 687 mmHg 89%
    05:00 -7°C° 0 mm 2 m/s 687 mmHg 89%
    06:00 -6°C° 0 mm 2 m/s 687 mmHg 89%
    07:00 -7°C° 0 mm 2 m/s 688 mmHg 88%
    08:00 -6°C° 0 mm 2 m/s 689 mmHg 88%
    09:00 -5°C° 0 mm 2 m/s 690 mmHg 88%
    10:00 -4°C° 0 mm 2 m/s 690 mmHg 88%
    11:00 -4°C° 0 mm 4 m/s 691 mmHg 84%
    12:00 -5°C° 0 mm 5 m/s 692 mmHg 79%
    13:00 -4°C° 0 mm 6 m/s 693 mmHg 75%
    14:00 -4°C° 0 mm 6 m/s 693 mmHg 76%
    15:00 -5°C° 0 mm 5 m/s 693 mmHg 76%
    16:00 -6°C° 0 mm 5 m/s 694 mmHg 77%
    17:00 -6°C° 0 mm 6 m/s 694 mmHg 76%
    18:00 -8°C° 0 mm 6 m/s 695 mmHg 74%
    19:00 -8°C° 0 mm 7 m/s 695 mmHg 73%
    20:00 -8°C° 0 mm 7 m/s 696 mmHg 72%
    21:00 -8°C° 0 mm 7 m/s 696 mmHg 72%
    22:00 -8°C° 0 mm 8 m/s 697 mmHg 72%
    23:00 -8°C° 0 mm 8 m/s 697 mmHg 71%

    Mâine, 24 Februarie, Luni

    Timp Temperatura Precipitaţii Vânt Presiune Umiditate
    00:00 -8°C° 0 mm 8 m/s 698 mmHg 71%
    01:00 -8°C° 0 mm 8 m/s 699 mmHg 70%
    02:00 -8°C° 0 mm 8 m/s 700 mmHg 71%
    03:00 -10°C° 0 mm 8 m/s 701 mmHg 71%
    04:00 -10°C° 0 mm 8 m/s 701 mmHg 71%
    05:00 -9°C° 0 mm 7 m/s 702 mmHg 72%
    06:00 -11°C° 0 mm 7 m/s 703 mmHg 72%
    07:00 -10°C° 0 mm 6 m/s 704 mmHg 73%
    08:00 -10°C° 0 mm 6 m/s 704 mmHg 74%
    09:00 -10°C° 0 mm 6 m/s 705 mmHg 76%
    10:00 -10°C° 0 mm 5 m/s 706 mmHg 78%
    11:00 -8°C° 0 mm 5 m/s 706 mmHg 77%
    12:00 -8°C° 0 mm 5 m/s 707 mmHg 77%
    13:00 -7°C° 0 mm 4 m/s 707 mmHg 77%
    14:00 -8°C° 0 mm 4 m/s 707 mmHg 78%
    15:00 -9°C° 0 mm 4 m/s 708 mmHg 80%
    16:00 -8°C° 0 mm 3 m/s 708 mmHg 81%
    17:00 -10°C° 0 mm 3 m/s 708 mmHg 83%
    18:00 -10°C° 0 mm 2 m/s 708 mmHg 84%
    19:00 -12°C° 0 mm 2 m/s 709 mmHg 85%
    20:00 -13°C° 0 mm 2 m/s 709 mmHg 85%
    21:00 -12°C° 0 mm 1 m/s 709 mmHg 84%
    22:00 -13°C° 0 mm 1 m/s 709 mmHg 84%
    23:00 -14°C° 0 mm 1 m/s 709 mmHg 85%

    Poimâine, 25 Februarie, Marţi

    Timp Temperatura Precipitaţii Vânt Presiune Umiditate
    00:00 -14°C° 0 mm 1 m/s 709 mmHg 85%
    01:00 -15°C° 0 mm 1 m/s 709 mmHg 85%
    02:00 -15°C° 0 mm 1 m/s 709 mmHg 85%
    03:00 -16°C° 0 mm 0 m/s 708 mmHg 85%
    04:00 -16°C° 0 mm 0 m/s 708 mmHg 85%
    05:00 -16°C° 0 mm 0 m/s 708 mmHg 85%
    06:00 -16°C° 0 mm 0 m/s 708 mmHg 85%
    07:00 -16°C° 0 mm 0 m/s 708 mmHg 84%
    08:00 -15°C° 0 mm 0 m/s 708 mmHg 85%
    09:00 -14°C° 0 mm 0 m/s 708 mmHg 85%
    10:00 -12°C° 0 mm 0 m/s 708 mmHg 86%
    11:00 -11°C° 0 mm 0 m/s 708 mmHg 86%
    12:00 -10°C° 0 mm 0 m/s 708 mmHg 87%
    13:00 -9°C° 0 mm 0 m/s 707 mmHg 87%
    14:00 -10°C° 0 mm 0 m/s 707 mmHg 89%
    15:00 -11°C° 0 mm 1 m/s 707 mmHg 91%
    16:00 -12°C° 0 mm 1 m/s 707 mmHg 93%
    17:00 -13°C° 0 mm 1 m/s 707 mmHg 93%
    18:00 -14°C° 0 mm 1 m/s 707 mmHg 94%
    19:00 -15°C° 0 mm 1 m/s 707 mmHg 94%
    20:00 -16°C° 0 mm 1 m/s 707 mmHg 93%
    21:00 -16°C° 0 mm 1 m/s 707 mmHg 92%
    22:00 -19°C° 0 mm 2 m/s 707 mmHg 91%
    23:00 -19°C° 0 mm 2 m/s 707 mmHg 90%

    26 Februarie, Miercuri

    Timp Temperatura Precipitaţii Vânt Presiune Umiditate
    00:00 -19°C° 0 mm 2 m/s 708 mmHg 90%
    01:00 -19°C° 0 mm 2 m/s 708 mmHg 89%
    02:00 -19°C° 0 mm 2 m/s 708 mmHg 88%
    03:00 -19°C° 0 mm 2 m/s 708 mmHg 87%
    04:00 -19°C° 0 mm 2 m/s 708 mmHg 87%
    05:00 -19°C° 0 mm 2 m/s 708 mmHg 86%
    06:00 -19°C° 0 mm 2 m/s 708 mmHg 85%
    07:00 -20°C° 0 mm 2 m/s 708 mmHg 84%
    08:00 -18°C° 0 mm 2 m/s 709 mmHg 84%
    09:00 -17°C° 0 mm 2 m/s 709 mmHg 84%
    10:00 -15°C° 0 mm 2 m/s 709 mmHg 84%
    11:00 -14°C° 0 mm 2 m/s 709 mmHg 84%
    12:00 -13°C° 0 mm 2 m/s 710 mmHg 84%
    13:00 -10°C° 0 mm 1 m/s 710 mmHg 84%
    14:00 -11°C° 0 mm 1 m/s 710 mmHg 84%
    15:00 -12°C° 0 mm 1 m/s 710 mmHg 84%
    16:00 -13°C° 0 mm 1 m/s 710 mmHg 83%
    17:00 -14°C° 0 mm 1 m/s 710 mmHg 81%
    18:00 -15°C° 0 mm 1 m/s 710 mmHg 79%
    19:00 -16°C° 0 mm 0 m/s 710 mmHg 78%
    20:00 -17°C° 0 mm 0 m/s 710 mmHg 78%
    21:00 -17°C° 0 mm 0 m/s 710 mmHg 78%
    22:00 -18°C° 0 mm 0 m/s 710 mmHg 79%
    23:00 -18°C° 0 mm 0 m/s 710 mmHg 80%

    27 Februarie, Joi

    Timp Temperatura Precipitaţii Vânt Presiune Umiditate
    00:00 -18°C° 0 mm 0 m/s 710 mmHg 81%
    01:00 -19°C° 0 mm 0 m/s 710 mmHg 82%
    02:00 -19°C° 0 mm 0 m/s 710 mmHg 82%
    03:00 -20°C° 0 mm 0 m/s 710 mmHg 83%
    04:00 -20°C° 0 mm 0 m/s 710 mmHg 83%
    05:00 -20°C° 0 mm 0 m/s 710 mmHg 83%
    06:00 -21°C° 0 mm 0 m/s 710 mmHg 82%
    07:00 -21°C° 0 mm 0 m/s 710 mmHg 82%
    08:00 -19°C° 0 mm 0 m/s 710 mmHg 82%
    09:00 -17°C° 0 mm 0 m/s 710 mmHg 82%
    10:00 -16°C° 0 mm 0 m/s 711 mmHg 82%
    11:00 -14°C° 0 mm 0 m/s 710 mmHg 83%
    12:00 -13°C° 0 mm 1 m/s 710 mmHg 83%
    13:00 -12°C° 0 mm 1 m/s 710 mmHg 83%
    14:00 -12°C° 0 mm 1 m/s 710 mmHg 84%
    15:00 -13°C° 0 mm 1 m/s 710 mmHg 85%
    16:00 -13°C° 0 mm 1 m/s 710 mmHg 87%
    17:00 -14°C° 0 mm 1 m/s 710 mmHg 86%
    18:00 -15°C° 0 mm 1 m/s 710 mmHg 85%
    19:00 -16°C° 0 mm 1 m/s 710 mmHg 85%
    20:00 -16°C° 0 mm 1 m/s 709 mmHg 84%
    21:00 -16°C° 0 mm 1 m/s 709 mmHg 84%
    22:00 -17°C° 0 mm 1 m/s 709 mmHg 84%
    23:00 -17°C° 0 mm 1 m/s 709 mmHg 84%

    28 Februarie, Vineri

    Timp Temperatura Precipitaţii Vânt Presiune Umiditate
    00:00 -17°C° 0 mm 1 m/s 709 mmHg 84%
    01:00 -18°C° 0 mm 1 m/s 709 mmHg 84%
    02:00 -18°C° 0 mm 1 m/s 708 mmHg 84%
    03:00 -19°C° 0 mm 1 m/s 708 mmHg 84%
    04:00 -19°C° 0 mm 1 m/s 708 mmHg 84%
    05:00 -20°C° 0 mm 1 m/s 708 mmHg 84%
    06:00 -20°C° 0 mm 1 m/s 708 mmHg 84%
    07:00 -20°C° 0 mm 1 m/s 708 mmHg 85%
    08:00 -19°C° 0 mm 1 m/s 708 mmHg 85%
    09:00 -17°C° 0 mm 1 m/s 708 mmHg 86%
    10:00 -15°C° 0 mm 1 m/s 708 mmHg 86%
    11:00 -14°C° 0 mm 1 m/s 708 mmHg 86%
    12:00 -12°C° 0 mm 1 m/s 708 mmHg 86%
    13:00 -11°C° 0 mm 1 m/s 708 mmHg 85%
    14:00 -11°C° 0 mm 1 m/s 708 mmHg 87%
    15:00 -11°C° 0 mm 1 m/s 708 mmHg 89%
    16:00 -11°C° 0 mm 1 m/s 708 mmHg 91%
    17:00 -12°C° 0 mm 1 m/s 708 mmHg 92%
    18:00 -14°C° 0 mm 2 m/s 707 mmHg 93%
    19:00 -14°C° 0 mm 2 m/s 707 mmHg 94%
    20:00 -14°C° 0 mm 2 m/s 707 mmHg 93%
    21:00 -14°C° 0 mm 2 m/s 707 mmHg 92%
    22:00 -15°C° 0 mm 2 m/s 706 mmHg 92%
    23:00 -15°C° 0 mm 2 m/s 706 mmHg 92%
    Arată mai mult